Regional Weather Roundup
Issued by NWS

Home | Current Version | Previous Version | Graphics & Text | Print | Product List | Glossary On
Versions: 1 2 3 4 5 6 7 8 9 10 11 12 13 14 15 16 17 18 19 20 21 22 23 24 25 26 27 28 29 30 31 32 33 34 35 36 37 38 39 40 41 42 43 44 45 46 47 48 49 50
000
ASUS43 KBIS 291610
RWRND

NORTH DAKOTA REGIONAL WEATHER ROUNDUP
NATIONAL WEATHER SERVICE BISMARCK ND
1100 AM CDT FRI APR 29 2016

NOTE: "FAIR" INDICATES FEW OR NO CLOUDS BELOW 12,000 FEET WITH NO
SIGNIFICANT WEATHER AND/OR OBSTRUCTIONS TO VISIBILITY.


NDZ001>003-009>011-017-291700-
NORTHWEST NORTH DAKOTA

CITY           SKY/WX    TMP DP  RH WIND       PRES   REMARKS
WILLISTON      CLOUDY    51  27  39 SE16      30.18S
MINOT          SUNNY     55  22  27 E5        30.21S
MINOT AFB      SUNNY     51  22  32 E8        30.20F
$$

NDZ018>021-031>035-040>046-291700-
SOUTHWEST NORTH DAKOTA

CITY           SKY/WX    TMP DP  RH WIND       PRES   REMARKS
BISMARCK       SUNNY     53  31  42 E8        30.18F
DICKINSON      CLOUDY    45  29  53 E14       30.14F
GARRISON         N/A     52  24  33 E12       30.19S
HETTINGER ARPT CLOUDY    47  35  63 NE8       30.11F
$$

NDZ004>008-012>016-024-026-027-054-291700-
NORTHEAST NORTH DAKOTA

CITY           SKY/WX    TMP DP  RH WIND       PRES   REMARKS
GRAND FORKS    MOSUNNY   53  31  42 NE13      30.22F
GRND FRKS AFB  SUNNY     53  31  42 E13       30.22F
DEVILS LAKE    SUNNY     52  29  41 E14       30.23S
$$

NDZ022-023-025-028>030-036>039-047>053-291700-
SOUTHEAST NORTH DAKOTA

CITY           SKY/WX    TMP DP  RH WIND       PRES   REMARKS
FARGO          SUNNY     55  36  48 E7        30.19S
JAMESTOWN      SUNNY     54  31  41 E10       30.18F
$$





USA.gov is the U.S. government's official web portal to all federal, state and local government web resources and services.